SCP
0 0 0 0 0 0 0 0 0 0 0 0 0 0 0 0 0 0 0 -0 -0 -0 -0 0 -0 -0 -0 -0 -0 -0 -0 -0 -0 -0 -0 -0 -0 -0 -0 0 0 0 0 0 0 0 0 0 0
0 0 0 0 0 0 0 0 0 0 0 0 0 0 0 0 0 0 0 0 -0 -0 -0 0 0 -0 -0 -0 -0 -0 -0 -0 -0 -0 -0 -0 -0 0 0 0 0 0 0 0 0 0 0 0 0
0 0 0 0 0 0 0 0 0 0 0 0 0 0 0 -0 0 0 0 0 -0 -0 -0 0 0 -0 -0 -0 -0 -0 -0 -0 -0 -0 -0 -0 -0 0 0 0 0 0 0 0 0 0 0 0 0
0 0 0 0 0 0 0 0 0 0 0 0 0 0 0 0 0 0 0 0 -0 -0 0 -0 0 -0 -0 -0 -0 -0 -0 -0 -0 -0 -0 -0 -0 0 0 0 0 0 0 0 0 0 0 0 0
0 0 0 0 0 0 0 0 0 0 0 0 0 0 0 0 0 0 0 -0 -0 0 0 -0 -0 0 -0 -0 -0 -0 -0 -0 -0 -0 -0 -0 0 0 0 0 0 0 0 0 0 0 0 0 0
0 0 0 0 0 0 0 -0 0 0 0 0 0 0 0 -0 0 0 0 0 0 0 0 -0 -0 -0 -0 -0 -0 -0 -0 -0 -0 -0 -0 -0 -0 0 0 0 0 0 0 0 0 0 0 0 0
0 0 0 0 0 0 -0 0 0 0 0 0 0 0 0 0 0 0 0 0 0 0 0 0 -0 -0 0 0 0 -0 -0 -0 -0 -0 -0 -0 -0 0 0 0 0 0 0 0 0 0 0 0 0
0 0 0 0 0 -0 0 0 0 0 0 0 0 0 0 0 0 0 0 0 0 0 0 0 -0 -0 0 0 0 0 -0 -0 -0 -0 -0 -0 -0 0 0 0 0 0 0 0 0 0 0 0 0
0 0 0 0 0 0 0 -0 -0 0 0 0 0 0 0 0 0 0 0 0 0 0 0 0 -0 0 0 0 0 -0 -0 0 -0 -0 -0 -0 0 0 0 0 0 0 0 0 0 0 1 1 0
0 0 0 0 0 0 0 -0 -0 -0 -0 -0 0 0 0 0 0 0 0 0 0 0 0 0 0 0 0 0 0 0 -0 -0 0 0 0 0 0 0 0 0 0 0 0 0 0 1 1 0 0
0 0 0 0 0 0 0 -0 -0 -0 -0 -0 -0 0 0 0 0 0 -0 0 0 0 0 0 0 0 0 0 0 0 0 0 0 0 0 0 0 0 0 0 0 0 0 0 0 1 1 0 0
0 0 0 0 0 0 0 0 -0 -0 -0 -0 -0 -0 0 0 0 0 0 0 0 0 0 0 0 0 0 0 0 0 0 0 0 0 0 0 0 0 0 0 0 0 0 0 0 0 0 0 0
0 0 0 0 0 0 0 0 0 -0 -0 -0 -0 -0 -0 0 0 0 0 0 0 0 0 0 0 0 0 0 0 0 0 0 0 0 0 0 0 0 0 0 0 0 0 0 0 0 0 0 0
0 0 0 0 0 0 0 0 0 -0 -0 0 -0 -0 -0 -0 0 0 0 0 0 0 0 0 0 0 0 0 0 0 0 0 0 0 0 0 0 0 0 0 0 0 0 0 0 0 0 0 0
0 0 0 0 0 0 0 0 0 0 -0 -0 -0 -0 -0 -0 0 0 0 0 0 0 0 0 0 0 0 0 0 0 0 0 0 0 0 0 0 0 0 0 0 0 0 0 0 0 0 0 0
0 0 0 0 0 0 0 0 0 0 0 0 0 -0 -0 0 0 0 0 0 0 0 1 1 1 0 0 0 0 0 0 0 0 0 0 0 0 0 0 0 0 0 0 0 0 0 0 0 0
0 0 0 0 0 0 0 0 0 0 0 0 0 0 0 0 0 0 0 0 0 0 0 1 2 1 0 0 0 0 0 0 0 0 0 0 0 0 0 0 0 0 0 0 0 0 0 0 0
0 0 0 0 0 0 0 0 0 0 0 0 0 0 0 0 0 0 0 0 0 0 0 0 0 1 0 0 0 0 0 0 0 0 0 0 0 0 0 0 0 0 0 0 0 0 0 0 0
0 0 0 0 0 0 0 0 0 0 0 0 0 0 0 0 0 0 0 0 0 0 0 0 0 0 0 0 0 0 0 0 0 0 0 0 0 0 0 0 0 0 0 0 0 0 0 0 0
0 0 -0 -0 0 -0 -0 0 0 -0 0 0 0 0 0 0 0 0 0 0 0 0 0 0 0 0 0 0 1 1 1 0 1 0 0 0 0 0 0 0 0 0 0 0 0 0 0 0 0
0 -0 -0 -0 -0 -0 -0 -0 -0 -0 0 0 0 -0 -0 0 0 0 0 0 0 0 0 0 0 0 0 0 1 0 0 0 0 1 1 1 1 1 0 0 0 0 0 0 0 0 0 0 0
0 0 0 0 0 -0 0 -0 -0 -0 -0 0 0 0 0 0 0 -0 0 0 0 0 0 0 0 0 0 0 1 1 1 1 1 1 1 1 1 1 1 0 0 0 0 0 0 0 0 0 0
0 0 0 0 0 0 0 -0 -0 -0 0 0 0 0 0 0 0 0 0 0 0 0 0 0 0 0 0 0 0 0 1 0 1 0 1 1 0 1 1 1 0 0 0 0 0 0 0 0 0
0 0 0 0 0 0 -0 -0 -0 -0 -0 -0 0 0 0 0 0 0 0 0 0 0 0 0 0 0 0 0 0 0 0 0 0 0 0 0 0 0 0 1 1 0 0 0 0 0 0 0 0
0 0 0 0 0 0 0 0 0 0 0 -0 0 0 0 0 0 0 0 0 0 0 0 0 0 0 0 0 0 0 0 1 0 0 0 0 0 0 0 0 0 0 0 0 0 0 0 0 0
0 0 0 0 0 0 0 0 0 0 0 0 -0 -0 0 0 0 0 0 0 0 0 0 0 0 0 0 0 0 0 0 0 0 0 0 0 0 0 0 1 1 0 0 0 0 0 0 0 0
0 0 0 0 0 0 0 0 0 0 0 0 0 0 -0 0 0 0 0 0 0 0 0 0 0 0 0 0 0 0 0 0 0 0 0 0 0 0 0 1 1 1 1 0 0 0 0 0 0
0 0 0 0 0 0 0 0 0 0 0 0 0 0 0 -0 0 0 0 0 0 0 0 0 0 0 0 0 0 0 0 0 0 0 0 0 0 0 1 1 1 1 1 0 0 0 0 0 0
0 0 0 0 0 0 0 0 0 0 0 0 0 0 -0 0 0 0 0 -0 0 0 0 0 0 0 0 0 0 0 0 0 0 0 0 0 0 1 1 1 1 1 1 0 0 0 0 0 0
0 0 0 0 0 0 0 0 0 0 0 0 -0 0 -0 -0 -0 0 0 0 0 0 0 0 0 0 0 0 0 0 0 0 0 0 0 0 1 1 1 1 1 1 0 0 0 0 0 0 0
Wind_Speed_500mb
12 2 7 5 6 9 5 12 6 8 12 11 18 10 16 16 13 11 12 42 67 76 76 70 63 59 55 55 54 52 51 49 47 45 44 43 42 39 37 35 32 30 27 27 25 23 21 20 18
10 5 5 4 8 1 9 9 10 11 9 35 32 14 16 26 56 63 44 61 77 81 82 77 72 68 63 61 59 57 54 53 51 48 45 43 42 39 36 34 31 28 26 24 22 20 18 17 15
5 5 5 7 6 12 9 11 8 7 28 21 9 25 13 11 20 20 56 71 86 85 84 81 78 74 70 64 61 58 55 54 52 49 46 42 39 37 34 31 28 25 22 21 19 16 15 13 12
5 7 7 7 18 8 8 5 7 14 17 8 19 18 20 27 26 35 42 89 91 89 86 84 80 77 73 67 62 55 53 51 48 45 43 40 36 33 30 27 24 22 20 18 16 13 11 10 9
13 3 3 4 10 7 7 16 18 12 10 26 27 15 22 14 23 27 41 92 94 94 89 86 81 77 73 69 63 57 53 50 46 43 40 36 34 30 27 24 21 19 17 15 14 13 12 9 7
6 5 4 10 8 3 7 15 10 8 8 24 32 29 10 37 22 26 64 91 93 89 87 85 82 77 72 68 63 59 55 51 46 42 39 36 33 30 26 23 21 19 17 14 12 10 9 7 6
9 6 10 9 3 7 5 8 5 9 10 11 33 10 16 82 48 30 65 85 93 88 87 88 83 77 71 67 65 59 56 51 47 43 40 37 34 31 28 26 24 21 19 17 16 14 13 13 12
10 7 5 9 10 7 5 15 17 11 9 40 28 12 21 81 31 26 71 78 97 91 87 87 85 81 75 70 67 61 57 51 48 44 41 39 35 33 33 31 29 26 24 23 22 21 21 21 19
12 3 7 10 7 5 19 10 12 15 20 33 6 25 43 58 22 22 62 75 95 92 88 86 85 83 76 72 69 64 60 54 50 47 44 41 41 40 39 37 34 31 29 28 29 28 28 29 28
8 7 14 6 1 9 32 19 28 11 26 18 30 41 53 53 26 20 49 76 91 92 92 88 85 81 76 73 70 67 65 61 57 53 50 49 47 45 43 40 40 37 36 36 36 37 35 37 36
4 8 5 1 3 9 14 45 16 17 22 3 41 61 58 47 39 29 30 56 92 95 92 91 85 82 79 76 73 69 68 64 60 56 54 54 51 49 48 45 46 43 42 44 42 43 44 43 40
3 6 6 2 10 13 10 33 29 40 37 37 33 54 42 44 40 35 35 44 74 86 92 94 93 87 83 79 75 68 67 64 63 59 57 56 54 55 52 51 48 47 47 49 47 46 48 49 46
7 3 10 18 15 15 28 27 39 53 45 44 35 30 36 37 31 33 36 40 54 80 97 95 95 88 83 80 75 71 71 63 61 60 57 57 57 56 55 55 54 52 49 53 51 50 50 52 51
4 6 16 10 23 19 16 27 38 20 13 39 29 24 27 32 31 34 37 33 50 64 81 86 87 88 87 82 79 74 71 63 60 60 58 56 59 60 60 59 59 56 49 53 51 49 50 50 51
7 8 12 13 15 13 24 26 24 49 32 31 40 47 52 48 43 36 39 36 36 58 66 62 86 92 91 87 84 75 67 65 60 55 55 49 58 57 59 59 58 53 44 47 47 46 46 48 47
7 8 7 10 5 11 14 14 8 25 11 18 19 14 17 20 28 37 39 42 42 42 56 66 73 83 85 85 82 70 65 60 54 53 47 52 53 49 55 56 55 50 43 44 46 44 42 43 42
10 1 3 14 2 7 5 9 7 39 22 30 25 21 27 30 21 21 33 38 38 41 50 62 71 71 75 76 78 67 83 66 61 68 53 71 68 54 56 54 53 50 44 50 47 47 43 42 40
6 5 8 8 10 10 18 12 16 36 41 33 30 30 22 27 29 25 19 31 46 41 45 57 59 50 62 75 80 75 69 62 67 71 73 78 87 69 55 50 52 51 52 55 50 51 46 42 41
5 6 7 9 9 11 17 20 18 28 32 23 28 27 30 27 23 28 27 20 24 48 46 49 68 67 65 68 79 84 77 78 79 80 85 95 72 81 53 50 54 55 60 56 52 52 50 45 45
6 4 6 10 12 10 16 37 24 14 14 21 21 26 35 30 34 34 27 27 21 24 48 50 59 70 64 68 77 89 97 96 88 93 100 104 85 69 56 51 57 57 63 59 53 52 50 49 46
3 5 5 10 10 11 14 23 10 8 11 23 32 31 24 46 45 33 29 31 34 29 22 48 57 62 73 61 72 81 80 79 85 90 97 94 89 74 58 54 62 62 66 61 56 52 49 47 43
6 8 5 8 12 7 11 17 11 12 22 14 26 23 46 50 30 25 27 33 36 38 34 31 42 67 76 75 77 78 81 85 91 95 110 107 100 75 65 61 66 66 66 61 55 53 48 44 44
13 3 6 5 9 7 7 6 3 16 20 24 34 60 54 28 26 30 31 35 36 36 42 40 38 42 61 75 81 81 81 83 86 91 94 100 100 65 61 70 67 62 61 54 48 47 44 42 38
6 4 7 7 4 2 9 11 11 5 9 11 11 26 23 26 27 29 32 34 41 40 41 42 39 39 37 54 72 73 79 77 85 84 81 83 66 59 63 68 62 57 57 52 49 38 40 32 30
9 11 8 8 4 10 7 1 28 19 37 31 24 32 32 23 27 34 38 44 48 43 46 46 43 45 37 35 50 61 72 76 76 71 70 66 62 64 64 61 56 52 48 48 42 36 32 30 34
12 14 9 10 5 18 8 14 16 9 15 18 19 23 30 35 35 44 49 57 59 48 41 48 49 52 48 38 39 45 59 75 80 64 60 64 66 58 56 52 48 44 36 38 36 34 31 28 32
5 8 9 6 3 4 9 13 26 29 25 17 28 34 42 39 44 61 58 63 69 59 47 41 50 54 57 51 41 49 53 52 64 65 61 66 63 62 55 50 46 36 35 36 36 33 29 29 32
11 11 2 4 8 11 8 20 23 14 12 16 19 30 46 46 66 80 70 67 74 66 54 44 43 54 58 57 48 52 56 58 59 67 67 69 65 59 52 47 41 38 38 38 34 29 28 28 29
1 3 6 7 7 7 14 17 11 18 19 19 21 44 53 57 81 81 80 71 67 62 47 46 46 51 56 59 53 54 65 62 63 69 76 69 63 57 47 45 43 41 43 38 32 30 30 29 32
11 11 13 6 7 8 11 39 16 15 19 14 33 47 61 69 81 90 76 70 67 45 46 45 47 51 53 55 54 53 63 69 65 64 73 67 62 49 44 40 43 43 37 33 34 31 35 34 30
Wind_Direction_500mb
332 347 160 190 70 66 246 260 281 313 344 175 302 222 231 234 172 215 282 199 183 177 171 166 158 159 158 155 153 150 147 146 146 145 144 141 136 135 133 128 125 122 120 116 114 112 113 112 114
315 139 157 130 101 127 261 240 235 223 288 308 301 262 226 256 258 242 247 189 183 179 172 168 161 158 157 156 154 151 150 150 149 149 148 147 145 144 140 137 135 132 127 122 120 120 120 119 121
268 192 162 106 139 200 210 212 229 274 309 279 285 280 266 258 269 229 219 197 181 180 175 171 165 160 160 160 158 156 156 156 156 156 156 156 155 151 150 148 144 142 140 137 136 135 130 127 117
220 203 67 103 243 256 215 208 213 327 331 319 292 296 304 283 278 231 233 185 179 180 178 175 169 166 163 164 163 162 164 163 163 164 165 165 166 164 162 160 158 159 159 153 151 148 148 143 139
198 197 95 250 249 251 231 263 281 286 282 304 327 291 285 256 249 234 201 177 182 180 180 178 173 174 168 168 168 170 172 172 171 173 176 178 178 179 177 176 180 181 175 172 171 170 170 171 163
181 138 104 236 249 279 277 260 253 232 305 319 335 309 326 351 327 216 187 175 184 181 181 181 178 181 175 173 175 177 178 180 181 184 187 190 194 196 196 198 202 205 202 199 203 204 205 209 211
153 122 212 257 162 330 273 335 274 326 324 320 337 341 338 348 332 196 180 180 182 185 185 183 182 186 184 181 183 184 186 187 190 193 197 202 208 211 214 218 221 223 229 230 235 236 240 243 242
176 134 215 224 225 231 277 327 319 8 311 321 345 1 342 347 316 212 181 185 185 187 189 189 186 188 190 189 190 191 195 196 200 203 208 212 217 221 226 230 232 235 238 243 246 250 256 256 255
163 120 217 239 201 243 297 4 317 300 293 317 306 326 344 347 315 230 194 191 189 191 192 194 190 193 195 196 196 197 201 205 209 213 218 222 227 231 232 240 242 245 248 252 254 255 259 261 262
167 180 213 215 292 332 306 288 308 319 314 305 325 315 334 342 320 237 206 196 194 197 197 198 196 198 198 202 203 204 206 209 214 218 223 228 232 237 242 244 248 250 254 256 258 261 259 260 265
169 198 219 117 355 306 277 296 308 302 290 328 318 315 324 333 333 265 227 216 201 203 203 201 201 201 204 207 208 210 211 214 218 224 228 235 239 241 244 248 251 254 260 261 262 266 268 266 268
299 252 340 323 324 308 275 298 286 267 275 293 299 302 312 314 317 319 261 245 216 210 210 207 204 204 207 211 212 214 219 221 224 228 233 241 244 247 252 256 257 260 267 266 267 267 272 272 269
169 4 345 312 297 281 283 274 277 274 286 299 302 296 305 307 302 302 317 263 249 225 217 212 209 208 211 214 215 218 222 226 231 235 241 246 255 256 261 265 265 267 269 272 271 272 272 275 274
317 287 292 264 268 261 249 263 255 275 353 316 305 297 299 309 309 296 293 308 257 235 222 220 221 213 216 219 219 223 224 230 238 242 246 251 262 268 267 269 271 271 275 276 275 275 274 273 274
267 294 307 245 244 232 227 261 254 276 289 267 278 285 289 290 297 302 300 295 286 243 228 219 234 223 222 222 226 226 233 233 243 250 253 265 264 268 270 269 270 270 274 272 272 272 270 270 273
38 41 12 288 353 270 186 263 19 18 26 333 345 340 323 290 285 289 292 299 286 260 247 232 225 228 230 231 232 230 235 237 242 245 255 262 260 263 266 267 270 270 267 267 269 269 268 268 271
3 135 262 313 267 311 175 299 318 325 311 314 311 324 328 328 321 279 271 276 289 278 262 238 234 234 233 232 228 241 229 224 228 253 260 265 265 260 262 268 274 273 268 266 267 269 266 267 271
284 353 315 264 301 349 302 266 279 310 307 297 299 310 316 323 324 324 298 260 262 270 270 249 254 249 242 236 232 227 230 231 242 257 245 241 255 257 259 266 275 278 273 267 268 269 270 268 269
225 190 225 261 280 350 304 296 291 287 290 281 291 297 310 318 325 310 310 308 275 254 258 259 243 255 254 242 233 227 232 234 242 249 234 247 247 253 259 267 272 274 274 275 272 268 267 268 266
172 186 294 288 288 322 287 289 288 240 250 265 283 296 302 310 317 311 301 294 288 281 244 247 259 247 245 246 240 239 247 251 247 239 245 249 256 258 260 266 271 274 275 274 274 271 271 270 262
275 182 250 256 311 271 319 283 217 224 247 276 282 282 286 307 311 307 291 287 283 278 261 242 244 255 250 250 249 249 253 257 254 249 252 260 264 259 259 267 270 273 277 278 276 275 275 272 266
312 197 241 291 5 309 74 292 262 210 244 259 266 275 297 293 288 304 308 295 283 273 278 266 247 239 243 245 248 250 256 259 255 261 258 259 263 265 258 264 266 269 274 272 274 272 273 269 262
225 199 273 249 258 335 218 246 259 330 291 270 262 265 265 245 281 298 305 308 299 294 280 276 273 257 241 240 238 244 250 250 249 255 259 256 258 259 251 258 261 264 267 261 271 266 262 266 261
72 20 334 38 105 318 236 188 279 215 233 286 277 274 259 287 296 304 307 311 304 297 291 282 274 271 257 243 237 238 245 252 254 254 256 256 252 243 250 253 256 264 268 259 260 252 253 264 255
77 53 329 328 349 236 176 309 253 279 288 269 266 267 286 293 305 317 320 320 317 301 291 287 279 266 266 259 246 238 242 243 256 253 248 247 236 243 249 251 258 268 268 254 240 236 239 243 243
218 160 172 260 231 286 242 245 254 238 270 260 241 266 282 289 313 329 328 325 323 303 289 288 284 273 269 273 255 253 247 249 250 248 241 237 235 249 251 252 256 262 249 230 224 224 234 234 238
171 183 197 233 234 360 229 274 290 261 254 239 253 271 276 291 312 323 322 326 319 306 289 288 286 279 271 270 262 248 250 253 253 243 236 229 240 248 249 248 253 242 231 221 221 223 230 236 229
165 172 80 12 294 258 250 262 244 296 277 254 271 264 295 309 320 320 319 321 317 302 285 285 281 277 273 267 266 248 246 244 248 249 239 239 245 251 246 240 241 229 222 217 216 223 214 208 216
226 233 72 180 187 239 296 262 189 231 243 256 265 280 301 305 318 316 314 308 313 297 277 284 282 276 271 265 267 252 243 240 236 243 244 243 251 252 238 233 228 222 216 213 218 209 203 208 209
200 223 169 200 236 243 275 264 322 287 266 278 286 296 304 307 307 306 304 301 309 301 286 282 276 273 267 262 262 248 238 234 231 236 237 242 247 231 220 226 216 211 216 218 199 200 202 206 206
Wind_Speed_850mb
12 2 7 5 6 9 5 12 6 8 12 11 18 10 16 16 13 11 12 42 67 76 76 70 63 59 55 55 54 52 51 49 47 45 44 43 42 39 37 35 32 30 27 27 25 23 21 20 18
10 5 5 4 8 1 9 9 10 11 9 35 32 14 16 26 56 63 44 61 77 81 82 77 72 68 63 61 59 57 54 53 51 48 45 43 42 39 36 34 31 28 26 24 22 20 18 17 15
5 5 5 7 6 12 9 11 8 7 28 21 9 25 13 11 20 20 56 71 86 85 84 81 78 74 70 64 61 58 55 54 52 49 46 42 39 37 34 31 28 25 22 21 19 16 15 13 12
5 7 7 7 18 8 8 5 7 14 17 8 19 18 20 27 26 35 42 89 91 89 86 84 80 77 73 67 62 55 53 51 48 45 43 40 36 33 30 27 24 22 20 18 16 13 11 10 9
13 3 3 4 10 7 7 16 18 12 10 26 27 15 22 14 23 27 41 92 94 94 89 86 81 77 73 69 63 57 53 50 46 43 40 36 34 30 27 24 21 19 17 15 14 13 12 9 7
6 5 4 10 8 3 7 15 10 8 8 24 32 29 10 37 22 26 64 91 93 89 87 85 82 77 72 68 63 59 55 51 46 42 39 36 33 30 26 23 21 19 17 14 12 10 9 7 6
9 6 10 9 3 7 5 8 5 9 10 11 33 10 16 82 48 30 65 85 93 88 87 88 83 77 71 67 65 59 56 51 47 43 40 37 34 31 28 26 24 21 19 17 16 14 13 13 12
10 7 5 9 10 7 5 15 17 11 9 40 28 12 21 81 31 26 71 78 97 91 87 87 85 81 75 70 67 61 57 51 48 44 41 39 35 33 33 31 29 26 24 23 22 21 21 21 19
12 3 7 10 7 5 19 10 12 15 20 33 6 25 43 58 22 22 62 75 95 92 88 86 85 83 76 72 69 64 60 54 50 47 44 41 41 40 39 37 34 31 29 28 29 28 28 29 28
8 7 14 6 1 9 32 19 28 11 26 18 30 41 53 53 26 20 49 76 91 92 92 88 85 81 76 73 70 67 65 61 57 53 50 49 47 45 43 40 40 37 36 36 36 37 35 37 36
4 8 5 1 3 9 14 45 16 17 22 3 41 61 58 47 39 29 30 56 92 95 92 91 85 82 79 76 73 69 68 64 60 56 54 54 51 49 48 45 46 43 42 44 42 43 44 43 40
3 6 6 2 10 13 10 33 29 40 37 37 33 54 42 44 40 35 35 44 74 86 92 94 93 87 83 79 75 68 67 64 63 59 57 56 54 55 52 51 48 47 47 49 47 46 48 49 46
7 3 10 18 15 15 28 27 39 53 45 44 35 30 36 37 31 33 36 40 54 80 97 95 95 88 83 80 75 71 71 63 61 60 57 57 57 56 55 55 54 52 49 53 51 50 50 52 51
4 6 16 10 23 19 16 27 38 20 13 39 29 24 27 32 31 34 37 33 50 64 81 86 87 88 87 82 79 74 71 63 60 60 58 56 59 60 60 59 59 56 49 53 51 49 50 50 51
7 8 12 13 15 13 24 26 24 49 32 31 40 47 52 48 43 36 39 36 36 58 66 62 86 92 91 87 84 75 67 65 60 55 55 49 58 57 59 59 58 53 44 47 47 46 46 48 47
7 8 7 10 5 11 14 14 8 25 11 18 19 14 17 20 28 37 39 42 42 42 56 66 73 83 85 85 82 70 65 60 54 53 47 52 53 49 55 56 55 50 43 44 46 44 42 43 42
10 1 3 14 2 7 5 9 7 39 22 30 25 21 27 30 21 21 33 38 38 41 50 62 71 71 75 76 78 67 83 66 61 68 53 71 68 54 56 54 53 50 44 50 47 47 43 42 40
6 5 8 8 10 10 18 12 16 36 41 33 30 30 22 27 29 25 19 31 46 41 45 57 59 50 62 75 80 75 69 62 67 71 73 78 87 69 55 50 52 51 52 55 50 51 46 42 41
5 6 7 9 9 11 17 20 18 28 32 23 28 27 30 27 23 28 27 20 24 48 46 49 68 67 65 68 79 84 77 78 79 80 85 95 72 81 53 50 54 55 60 56 52 52 50 45 45
6 4 6 10 12 10 16 37 24 14 14 21 21 26 35 30 34 34 27 27 21 24 48 50 59 70 64 68 77 89 97 96 88 93 100 104 85 69 56 51 57 57 63 59 53 52 50 49 46
3 5 5 10 10 11 14 23 10 8 11 23 32 31 24 46 45 33 29 31 34 29 22 48 57 62 73 61 72 81 80 79 85 90 97 94 89 74 58 54 62 62 66 61 56 52 49 47 43
6 8 5 8 12 7 11 17 11 12 22 14 26 23 46 50 30 25 27 33 36 38 34 31 42 67 76 75 77 78 81 85 91 95 110 107 100 75 65 61 66 66 66 61 55 53 48 44 44
13 3 6 5 9 7 7 6 3 16 20 24 34 60 54 28 26 30 31 35 36 36 42 40 38 42 61 75 81 81 81 83 86 91 94 100 100 65 61 70 67 62 61 54 48 47 44 42 38
6 4 7 7 4 2 9 11 11 5 9 11 11 26 23 26 27 29 32 34 41 40 41 42 39 39 37 54 72 73 79 77 85 84 81 83 66 59 63 68 62 57 57 52 49 38 40 32 30
9 11 8 8 4 10 7 1 28 19 37 31 24 32 32 23 27 34 38 44 48 43 46 46 43 45 37 35 50 61 72 76 76 71 70 66 62 64 64 61 56 52 48 48 42 36 32 30 34
12 14 9 10 5 18 8 14 16 9 15 18 19 23 30 35 35 44 49 57 59 48 41 48 49 52 48 38 39 45 59 75 80 64 60 64 66 58 56 52 48 44 36 38 36 34 31 28 32
5 8 9 6 3 4 9 13 26 29 25 17 28 34 42 39 44 61 58 63 69 59 47 41 50 54 57 51 41 49 53 52 64 65 61 66 63 62 55 50 46 36 35 36 36 33 29 29 32
11 11 2 4 8 11 8 20 23 14 12 16 19 30 46 46 66 80 70 67 74 66 54 44 43 54 58 57 48 52 56 58 59 67 67 69 65 59 52 47 41 38 38 38 34 29 28 28 29
1 3 6 7 7 7 14 17 11 18 19 19 21 44 53 57 81 81 80 71 67 62 47 46 46 51 56 59 53 54 65 62 63 69 76 69 63 57 47 45 43 41 43 38 32 30 30 29 32
11 11 13 6 7 8 11 39 16 15 19 14 33 47 61 69 81 90 76 70 67 45 46 45 47 51 53 55 54 53 63 69 65 64 73 67 62 49 44 40 43 43 37 33 34 31 35 34 30
Wind_Direction_850mb
332 347 160 190 70 66 246 260 281 313 344 175 302 222 231 234 172 215 282 199 183 177 171 166 158 159 158 155 153 150 147 146 146 145 144 141 136 135 133 128 125 122 120 116 114 112 113 112 114
315 139 157 130 101 127 261 240 235 223 288 308 301 262 226 256 258 242 247 189 183 179 172 168 161 158 157 156 154 151 150 150 149 149 148 147 145 144 140 137 135 132 127 122 120 120 120 119 121
268 192 162 106 139 200 210 212 229 274 309 279 285 280 266 258 269 229 219 197 181 180 175 171 165 160 160 160 158 156 156 156 156 156 156 156 155 151 150 148 144 142 140 137 136 135 130 127 117
220 203 67 103 243 256 215 208 213 327 331 319 292 296 304 283 278 231 233 185 179 180 178 175 169 166 163 164 163 162 164 163 163 164 165 165 166 164 162 160 158 159 159 153 151 148 148 143 139
198 197 95 250 249 251 231 263 281 286 282 304 327 291 285 256 249 234 201 177 182 180 180 178 173 174 168 168 168 170 172 172 171 173 176 178 178 179 177 176 180 181 175 172 171 170 170 171 163
181 138 104 236 249 279 277 260 253 232 305 319 335 309 326 351 327 216 187 175 184 181 181 181 178 181 175 173 175 177 178 180 181 184 187 190 194 196 196 198 202 205 202 199 203 204 205 209 211
153 122 212 257 162 330 273 335 274 326 324 320 337 341 338 348 332 196 180 180 182 185 185 183 182 186 184 181 183 184 186 187 190 193 197 202 208 211 214 218 221 223 229 230 235 236 240 243 242
176 134 215 224 225 231 277 327 319 8 311 321 345 1 342 347 316 212 181 185 185 187 189 189 186 188 190 189 190 191 195 196 200 203 208 212 217 221 226 230 232 235 238 243 246 250 256 256 255
163 120 217 239 201 243 297 4 317 300 293 317 306 326 344 347 315 230 194 191 189 191 192 194 190 193 195 196 196 197 201 205 209 213 218 222 227 231 232 240 242 245 248 252 254 255 259 261 262
167 180 213 215 292 332 306 288 308 319 314 305 325 315 334 342 320 237 206 196 194 197 197 198 196 198 198 202 203 204 206 209 214 218 223 228 232 237 242 244 248 250 254 256 258 261 259 260 265
169 198 219 117 355 306 277 296 308 302 290 328 318 315 324 333 333 265 227 216 201 203 203 201 201 201 204 207 208 210 211 214 218 224 228 235 239 241 244 248 251 254 260 261 262 266 268 266 268
299 252 340 323 324 308 275 298 286 267 275 293 299 302 312 314 317 319 261 245 216 210 210 207 204 204 207 211 212 214 219 221 224 228 233 241 244 247 252 256 257 260 267 266 267 267 272 272 269
169 4 345 312 297 281 283 274 277 274 286 299 302 296 305 307 302 302 317 263 249 225 217 212 209 208 211 214 215 218 222 226 231 235 241 246 255 256 261 265 265 267 269 272 271 272 272 275 274
317 287 292 264 268 261 249 263 255 275 353 316 305 297 299 309 309 296 293 308 257 235 222 220 221 213 216 219 219 223 224 230 238 242 246 251 262 268 267 269 271 271 275 276 275 275 274 273 274
267 294 307 245 244 232 227 261 254 276 289 267 278 285 289 290 297 302 300 295 286 243 228 219 234 223 222 222 226 226 233 233 243 250 253 265 264 268 270 269 270 270 274 272 272 272 270 270 273
38 41 12 288 353 270 186 263 19 18 26 333 345 340 323 290 285 289 292 299 286 260 247 232 225 228 230 231 232 230 235 237 242 245 255 262 260 263 266 267 270 270 267 267 269 269 268 268 271
3 135 262 313 267 311 175 299 318 325 311 314 311 324 328 328 321 279 271 276 289 278 262 238 234 234 233 232 228 241 229 224 228 253 260 265 265 260 262 268 274 273 268 266 267 269 266 267 271
284 353 315 264 301 349 302 266 279 310 307 297 299 310 316 323 324 324 298 260 262 270 270 249 254 249 242 236 232 227 230 231 242 257 245 241 255 257 259 266 275 278 273 267 268 269 270 268 269
225 190 225 261 280 350 304 296 291 287 290 281 291 297 310 318 325 310 310 308 275 254 258 259 243 255 254 242 233 227 232 234 242 249 234 247 247 253 259 267 272 274 274 275 272 268 267 268 266
172 186 294 288 288 322 287 289 288 240 250 265 283 296 302 310 317 311 301 294 288 281 244 247 259 247 245 246 240 239 247 251 247 239 245 249 256 258 260 266 271 274 275 274 274 271 271 270 262
275 182 250 256 311 271 319 283 217 224 247 276 282 282 286 307 311 307 291 287 283 278 261 242 244 255 250 250 249 249 253 257 254 249 252 260 264 259 259 267 270 273 277 278 276 275 275 272 266
312 197 241 291 5 309 74 292 262 210 244 259 266 275 297 293 288 304 308 295 283 273 278 266 247 239 243 245 248 250 256 259 255 261 258 259 263 265 258 264 266 269 274 272 274 272 273 269 262
225 199 273 249 258 335 218 246 259 330 291 270 262 265 265 245 281 298 305 308 299 294 280 276 273 257 241 240 238 244 250 250 249 255 259 256 258 259 251 258 261 264 267 261 271 266 262 266 261
72 20 334 38 105 318 236 188 279 215 233 286 277 274 259 287 296 304 307 311 304 297 291 282 274 271 257 243 237 238 245 252 254 254 256 256 252 243 250 253 256 264 268 259 260 252 253 264 255
77 53 329 328 349 236 176 309 253 279 288 269 266 267 286 293 305 317 320 320 317 301 291 287 279 266 266 259 246 238 242 243 256 253 248 247 236 243 249 251 258 268 268 254 240 236 239 243 243
218 160 172 260 231 286 242 245 254 238 270 260 241 266 282 289 313 329 328 325 323 303 289 288 284 273 269 273 255 253 247 249 250 248 241 237 235 249 251 252 256 262 249 230 224 224 234 234 238
171 183 197 233 234 360 229 274 290 261 254 239 253 271 276 291 312 323 322 326 319 306 289 288 286 279 271 270 262 248 250 253 253 243 236 229 240 248 249 248 253 242 231 221 221 223 230 236 229
165 172 80 12 294 258 250 262 244 296 277 254 271 264 295 309 320 320 319 321 317 302 285 285 281 277 273 267 266 248 246 244 248 249 239 239 245 251 246 240 241 229 222 217 216 223 214 208 216
226 233 72 180 187 239 296 262 189 231 243 256 265 280 301 305 318 316 314 308 313 297 277 284 282 276 271 265 267 252 243 240 236 243 244 243 251 252 238 233 228 222 216 213 218 209 203 208 209
200 223 169 200 236 243 275 264 322 287 266 278 286 296 304 307 307 306 304 301 309 301 286 282 276 273 267 262 262 248 238 234 231 236 237 242 247 231 220 226 216 211 216 218 199 200 202 206 206